STARLINK-2014 (47637 NORAD) Tracking and Keplerian Element Data

This shows tracking and keplerian element data for the satellite.

Feedback or suggestion? Click here.




ElementValue
Catalog47637
NameSTARLINK-2014
Epoch Orbit177
Epoch Day101.91668981
Epoch Year2021
RAAN189.5946
Inclination53.0476
Eccentricity0.000138
Argument of Perigee54.8595
Mean Anonmoly77.7502
Mean Motion15.60293961
Decay Rate-0.00486388
L11 47637U 21012T 21101.91668981 -.00486388 00000-0 -61957-2 0 9995
L22 47637 53.0476 189.5946 0001380 54.8595 77.7502 15.60293961 1779

Live tracking and technical data element details for STARLINK-2014 (NORAD 47637). STARLINK-2014 can be tracked NOW for your location showing map with azimuth and elevation plus other details from your city location.

Track the satellite on the map from your city or location and see movement details for azimuth, elevation, latitude, longitude, range, height, and movement on the map or in text.







IsCatalogInMostPopularTable: catalog: 47637, numindb: 19
Update: records affected: 1



GetName: 47637 STARLINK-2014

Hit Count: updated at: Tue, 13 Apr 2021 04:15:54 GMT